Regional Weather Roundup
Issued by NWS

Home | Current Version | Previous Version | Graphics & Text | Print | Product List | Glossary On
Versions: 1 2 3 4 5 6 7 8 9 10 11 12 13 14 15 16 17 18 19 20 21 22 23 24 25 26 27 28 29 30 31 32 33 34 35 36 37 38 39 40 41 42 43 44 45 46 47 48 49 50
081
ASUS43 KDMX 210901
RWRIA

WEATHER ROUNDUP FOR IOWA
NATIONAL WEATHER SERVICE DES MOINES IA
300 AM CST TUE NOV 21 2017

NOTE: "FAIR" INDICATES FEW OR NO CLOUDS BELOW 12,000 FEET WITH NO
SIGNIFICANT WEATHER AND/OR OBSTRUCTIONS TO VISIBILITY.

* - THESE STATIONS ARE NOT NWS STATIONS...THUS NOT UNDER NWS
QUALITY CONTROL.  THEY ALSO DO NOT REPORT WEATHER SUCH
AS PRECIPITATION OR FOG.

IAZ001>003-012>014-020>022-031>034-043>046-211000-
   NORTHWEST IOWA

CITY           SKY/WX    TMP DP  RH WIND       PRES   REMARKS
CARROLL *      CLOUDY    43  25  49 N16G25    29.76R
CHEROKEE *     CLOUDY    38  25  58 N14       29.81R WCI  30
DENISON *      CLOUDY    43  27  52 N9        29.79R
LE MARS *      CLOUDY    39  19  45 N14G21    29.83R WCI  31
ORANGE CITY *  CLOUDY    39  18  41 N13       29.82R WCI  32
SHELDON *      CLOUDY    37  19  48 NW13G18   29.79R WCI  29
SIOUX CITY     CLOUDY    42  22  44 N15       29.83R
SPENCER        CLOUDY    38  17  42 NW15G28   29.78R WCI  29
STORM LAKE *   CLOUDY    37  27  65 N14G20    29.78R WCI  29
$$

IAZ055>058-069>071-079>083-090>094-211000-
   SOUTHWEST IOWA

CITY           SKY/WX    TMP DP  RH WIND       PRES   REMARKS
ATLANTIC *     CLOUDY    34  30  86 CALM      29.73R
AUDUBON *      CLOUDY    43  28  56 N13       29.75R
CLARINDA *       N/A     30  30 100 CALM      29.75R
COUNCIL BLFS * CLOUDY    41  28  60 N8        29.75R
CRESTON *      CLOUDY    39  28  65 NW7       29.73R WCI  34
HARLAN  *      CLOUDY    36  30  80 N8        29.79R WCI  29
LAMONI         CLOUDY    45  30  55 SW6       29.72R
RED OAK *      CLOUDY    32  28  86 CALM      29.75R
SHENANDOAH *   PTCLDY    32  28  86 CALM      29.75R
$$

IAZ047>049-059>061-072>074-084-211000-
   CENTRAL IOWA

CITY           SKY/WX    TMP DP  RH WIND       PRES   REMARKS
AMES           PTCLDY    44  29  55 N17G25    29.72R
ANKENY *       CLOUDY    45  28  53 NW7       29.73R
BOONE *        MOCLDY    43  28  56 N15       29.71R
CHARITON *     CLOUDY    41  30  65 CALM      29.71R
DES MOINES     MOCLDY    46  28  49 N10       29.71R
GRINNELL*      MOCLDY    39  30  69 W9        29.71R WCI  33
KNOXVILLE *    CLOUDY    41  28  60 W8        29.70R
MARSHALLTOWN   PTCLDY    38  30  73 NW9       29.69R WCI  31
NEWTON *       PTCLDY    43  30  61 NW9       29.71R
PELLA *        PTCLDY    44  31  60 W7        29.72R
PERRY *        MOCLDY    44  25  48 NW12      29.74R
$$

IAZ004>006-015-016-023>025-035-036-211000-
   NORTH CENTRAL IOWA

CITY           SKY/WX    TMP DP  RH WIND       PRES   REMARKS
ALGONA *       CLOUDY    37  19  48 NW20G26   29.75R WCI  27
CLARION *      CLOUDY    37  25  60 NW20      29.72R WCI  27
ESTHERVILLE    CLOUDY    36  19  50 NW16      29.76R WCI  26
FORT DODGE *   MOCLDY    40  23  50 N12G20    29.75R WCI  33
MASON CITY     CLOUDY    37  22  54 NW23G31   29.71R WCI  26
FOREST CITY *  CLOUDY    37  23  56 NW20      29.72R WCI  27
WEBSTER CITY * CLOUDY    39  27  60 NW13G22   29.72R WCI  32
IOWA FALLS *     N/A     41  29  62 NW14G22   29.72R
$$

IAZ007>011-017>019-026>030-037>042-050>054-066-211000-
   NORTHEAST IOWA

CITY           SKY/WX    TMP DP  RH WIND       PRES   REMARKS
CEDAR RAPIDS   PTCLDY    38  30  73 W12       29.67R WCI  30
CHARLES CITY * MOCLDY    39  27  60 NW16G23   29.67R WCI  30
CLINTON *      CLEAR     42  33  70 W13       29.67R
DECORAH *      PTCLDY    37  28  70 W9G16     29.62R WCI  31
DUBUQUE        CLEAR     41  30  65 W6        29.64R
MONTICELLO *   CLEAR     41  30  65 CALM      29.65S
OELWEIN *      PTCLDY    37  32  81 NW13      29.67R WCI  29
WATERLOO       PTCLDY    40  27  59 NW12      29.68R WCI  33
$$

IAZ064-065-067-068-078-211000-
   EAST CENTRAL IOWA

CITY           SKY/WX    TMP DP  RH WIND       PRES   REMARKS
DAVENPORT      PTCLDY    44  32  62 SW12      29.69R
IOWA CITY      CLEAR     41  30  65 W5        29.70R
MT. PLEASANT * PTCLDY    41  31  67 SW9       29.71R
MUSCATINE *    PTCLDY    45  32  61 SW6       29.69S
QUAD CITIES    CLEAR     42  30  62 W8        29.68R
$$

IAZ062-063-075>077-085>089-095>099-211000-
   SOUTHEAST IOWA

CITY           SKY/WX    TMP DP  RH WIND       PRES   REMARKS
BURLINGTON     CLEAR     47  33  58 SW12      29.70R
FAIRFIELD *    MOCLDY    45  30  57 SW8       29.70R
FORT MADISON * CLOUDY    48  32  53 SW9       29.72R
KEOKUK *       PTCLDY    46  32  57 SW12      29.72R
OSKALOOSA *      N/A     39  31  74 W9        29.71R WCI  32
OTTUMWA        CLOUDY    44  31  60 W8        29.71R
WASHINGTON *   PTCLDY    43  32  65 SW8       29.71R
$$

ABBREVIATIONS USED IN REMARKS
   TC - TEMPERATURES IN CELSIUS
  WCI - WIND CHILL INDEX
   HX - HEAT INDEX
  VSB - VISIBILITY
$$





USA.gov is the U.S. government's official web portal to all federal, state and local government web resources and services.